EHI
0 0 0 0 0 0 0 0 0 0 0 0 0 0 0 0 0 0 1 2 7 23 34 22 7 2 0 0 1 4 11 18 28 40 40 26 10 2 1 0 0 0 0 0 0 0 0 0 0
0 0 0 0 0 0 0 0 0 0 0 0 0 0 0 0 0 0 0 1 4 16 26 21 9 3 0 0 0 3 7 11 19 26 26 17 7 1 0 0 0 0 0 0 0 0 0 0 0
0 0 0 0 0 0 0 0 0 0 0 0 0 0 0 0 0 0 0 0 2 9 19 20 11 3 0 0 0 1 2 4 6 9 9 6 3 1 0 0 0 0 0 0 0 0 0 0 0
0 0 0 0 0 0 0 0 0 0 0 0 0 0 0 0 0 0 0 0 1 6 14 17 10 2 0 0 0 0 1 1 1 1 1 1 1 0 0 0 0 0 0 0 0 0 0 0 0
0 0 0 0 0 0 0 0 0 0 0 0 0 0 0 0 0 0 0 0 1 2 8 12 8 2 1 0 0 0 0 0 0 0 0 0 0 0 0 0 0 0 0 0 0 0 0 0 0
0 0 0 0 0 0 0 0 0 0 0 0 0 0 0 0 0 0 0 0 0 0 5 9 6 2 1 0 1 1 1 1 0 0 0 0 0 0 0 0 0 0 0 0 0 0 0 0 0
0 0 0 0 0 0 0 0 0 0 0 0 0 0 2 6 7 5 2 0 0 0 2 5 4 3 4 5 7 7 7 6 5 4 2 1 1 0 0 0 0 0 0 0 0 0 0 0 0
0 0 0 0 0 0 0 0 0 0 0 0 0 1 9 22 28 23 15 7 3 2 2 2 3 6 10 14 19 21 21 18 13 10 7 5 2 0 0 0 1 1 0 0 0 0 0 0 0
0 0 0 0 0 0 0 0 0 0 0 0 1 4 18 38 49 46 35 23 14 9 6 5 8 13 15 20 28 33 34 31 22 15 14 10 5 1 1 5 8 5 1 0 0 0 0 0 0
0 0 0 0 0 0 0 0 0 1 1 2 2 6 19 35 46 47 42 34 25 17 12 11 15 19 19 22 31 37 41 42 35 26 24 24 18 11 10 15 18 9 2 0 0 0 0 1 1
0 0 0 0 0 0 0 0 1 3 5 8 8 8 13 21 27 33 36 33 25 19 15 16 20 21 22 25 31 37 43 48 48 43 43 46 46 39 33 32 28 19 11 6 6 6 4 3 3
0 0 0 0 0 0 0 0 2 5 8 15 20 20 20 24 30 36 40 34 26 20 18 18 21 24 26 29 31 34 41 45 48 54 58 63 66 63 59 55 46 34 26 18 15 16 11 6 6
0 0 0 0 0 0 0 0 2 5 8 16 28 37 42 46 51 55 51 43 34 27 22 18 20 24 28 31 32 32 36 37 39 48 57 61 65 67 67 68 61 46 33 25 22 19 14 11 11
0 0 0 0 0 0 0 0 1 3 6 12 23 35 43 48 51 52 47 41 36 30 23 17 14 16 21 24 25 26 29 29 28 34 44 48 51 57 58 58 55 44 33 32 27 19 14 13 14
0 0 0 0 0 0 0 0 0 1 3 7 13 19 24 26 27 28 28 28 26 24 21 15 8 6 8 10 12 15 17 17 17 23 29 32 35 42 44 42 38 36 35 38 34 23 14 11 9
0 0 0 0 0 0 0 0 0 0 1 4 6 8 9 9 9 10 13 16 15 15 15 11 6 3 2 3 5 7 7 7 10 16 20 20 20 25 31 31 27 27 30 33 30 22 13 8 6
0 0 0 0 0 0 0 0 0 0 0 1 2 3 3 3 3 3 5 7 8 8 8 8 6 3 2 2 4 5 5 5 7 11 14 13 10 11 18 22 20 19 21 20 17 14 11 8 6
0 0 0 0 0 0 0 0 0 0 0 0 0 0 0 0 0 0 0 2 3 4 4 5 4 3 1 2 3 3 3 3 3 7 9 8 5 4 8 13 15 15 13 11 10 9 8 5 4
0 0 0 0 0 0 0 0 0 0 0 0 0 0 0 0 0 0 0 0 1 2 2 2 2 1 1 2 2 1 1 1 1 2 3 3 2 3 6 10 14 14 10 8 7 6 5 2 1
0 0 0 0 0 0 0 0 0 0 0 0 0 0 0 0 0 0 0 0 0 1 1 1 1 0 0 1 1 0 0 0 0 0 0 0 0 2 5 8 11 13 11 7 5 4 2 1 0
0 0 0 1 0 0 0 0 0 0 0 0 0 0 0 0 0 0 0 0 0 0 0 0 0 0 0 0 0 0 0 0 0 0 0 0 0 1 3 5 7 9 9 6 3 1 1 0 0
0 0 1 2 1 0 0 0 0 0 0 0 0 0 0 0 0 0 0 0 0 0 0 0 0 0 0 0 0 0 0 0 0 0 0 0 0 1 1 2 3 4 4 3 2 1 0 0 0
0 0 1 1 0 0 0 0 0 0 0 0 0 0 0 0 0 0 0 0 0 0 0 0 0 0 0 0 0 0 0 0 0 0 0 0 0 0 0 0 1 1 0 0 0 0 0 0 0
0 0 0 0 0 0 0 1 2 2 0 0 0 0 0 0 0 0 0 0 0 0 0 0 0 0 0 0 0 0 0 0 0 0 0 0 0 0 0 0 0 0 0 0 0 0 0 0 0
0 0 0 0 0 0 0 3 6 4 1 0 0 0 0 0 0 0 0 0 0 0 0 0 0 0 0 0 0 0 0 0 0 0 0 0 0 0 0 0 0 0 0 0 0 0 0 0 0
0 0 0 0 0 0 0 3 5 3 0 0 0 0 0 0 0 0 0 0 0 0 0 0 0 0 0 0 0 0 0 0 0 0 0 0 0 0 0 0 0 0 0 0 0 0 0 0 0
0 0 0 0 0 0 0 1 2 1 0 0 0 0 0 0 0 0 0 0 0 0 0 0 0 0 0 0 0 0 0 0 0 0 0 0 0 0 0 0 0 0 0 0 0 0 0 0 0
0 0 0 0 0 0 0 0 0 0 0 0 0 0 0 0 0 0 0 0 0 0 0 0 0 0 0 0 0 0 0 0 0 0 0 0 0 0 0 0 0 0 0 0 0 0 0 0 0
0 0 0 0 0 0 0 0 0 0 0 0 0 0 0 0 0 0 0 0 0 0 0 0 0 0 0 0 0 0 0 0 0 0 0 0 0 0 0 0 0 0 0 0 0 0 0 0 0
0 0 0 0 0 0 0 0 0 0 0 0 0 0 0 0 0 0 0 0 0 0 0 0 0 0 0 0 0 0 0 0 0 0 0 0 0 0 0 0 0 0 0 0 0 0 0 0 0
Wind_Speed
17 14 8 6 8 6 5 7 5 5 4 4 2 2 5 6 7 7 6 10 14 18 20 20 17 16 15 14 12 12 12 12 12 13 13 12 12 11 11 11 11 10 9 8 8 8 8 7 7
13 10 7 7 8 3 7 6 6 6 5 2 0 2 3 5 6 6 7 11 16 18 18 17 18 16 15 13 12 12 11 11 11 12 12 12 11 11 10 10 10 10 9 8 8 8 8 7 7
11 8 7 7 4 6 7 7 6 3 2 1 1 3 5 6 5 5 8 14 16 16 16 17 18 16 14 13 12 12 11 11 11 11 11 11 10 10 10 10 10 9 9 8 8 8 8 7 7
7 7 7 8 3 7 6 7 5 2 2 2 1 4 6 8 4 8 13 15 16 16 15 18 17 15 14 13 12 11 11 10 10 10 10 10 10 10 10 10 10 9 9 8 8 8 8 8 8
7 7 8 4 4 6 5 6 3 3 3 4 3 5 8 7 8 12 13 14 15 15 14 18 16 14 13 12 12 11 11 10 10 10 10 10 10 10 11 10 10 9 9 8 8 8 8 9 9
6 6 8 3 5 4 5 5 3 3 3 3 3 5 9 8 9 11 12 12 13 14 13 16 15 14 13 12 12 11 11 11 10 10 10 10 9 10 10 10 10 10 9 9 9 9 9 9 10
7 6 6 4 3 3 7 8 6 5 5 6 3 4 9 10 10 11 11 10 11 12 12 13 15 14 13 12 12 12 12 12 11 11 11 10 10 10 10 10 10 10 10 10 10 10 10 10 11
6 7 7 4 2 3 8 8 8 8 7 5 4 3 7 10 12 13 12 10 10 10 10 11 11 12 13 13 14 13 13 13 13 13 13 12 12 12 12 11 11 11 11 11 11 12 12 12 12
6 8 8 3 3 5 10 10 9 4 5 7 9 9 7 14 15 15 13 11 10 9 9 10 11 10 11 11 12 13 13 13 13 13 15 13 12 14 13 16 13 13 13 13 14 14 14 13 14
7 10 5 3 4 7 8 9 10 4 6 9 9 8 8 12 14 15 14 14 13 12 11 9 9 9 9 7 8 9 10 11 12 11 12 12 11 9 10 9 13 14 15 15 16 15 14 14 11
7 8 3 3 5 7 6 6 11 8 8 13 9 2 5 9 10 11 12 12 12 12 10 10 8 6 6 5 5 4 5 6 9 11 11 9 9 8 9 7 9 13 15 14 13 14 12 12 10
7 5 4 5 6 5 5 3 8 14 11 11 8 4 4 6 6 7 8 8 8 8 8 6 4 3 4 4 4 5 5 5 7 8 11 9 7 8 8 7 8 8 7 9 9 8 11 12 12
8 4 1 3 3 4 6 9 9 12 11 10 11 10 8 7 7 7 6 6 4 3 2 1 1 2 2 3 5 6 6 7 8 8 8 10 9 9 9 7 7 9 8 9 9 10 10 11 11
2 2 0 3 5 7 11 10 8 9 8 10 12 12 12 12 11 10 8 7 6 4 3 2 2 3 4 4 5 6 7 7 9 9 11 12 10 9 8 9 8 9 9 9 9 10 10 9 9
5 5 8 6 5 7 6 11 9 7 7 9 11 12 12 11 11 10 9 8 7 5 5 4 3 4 5 7 7 6 7 8 9 9 10 11 11 10 9 9 9 9 9 9 9 10 9 9 10
7 10 8 8 2 3 6 7 8 5 7 9 9 10 10 10 10 9 9 8 8 7 7 6 6 6 6 6 7 6 7 8 8 8 8 10 11 10 8 8 8 8 7 7 8 8 7 8 8
8 4 6 8 6 2 4 9 7 5 7 8 8 8 8 8 9 9 8 7 7 7 6 6 6 7 7 7 6 6 6 6 6 6 6 7 8 8 7 7 7 7 6 7 8 7 6 8 8
1 2 4 7 7 8 10 10 7 6 7 7 7 7 7 8 8 7 6 6 6 6 6 6 6 8 8 7 6 5 6 5 5 5 5 6 4 5 6 6 6 6 5 6 6 6 6 6 6
2 2 3 8 5 7 10 10 8 6 6 6 6 6 6 7 7 6 6 5 6 6 6 6 7 8 7 7 8 8 7 6 6 6 7 6 5 5 5 4 4 5 6 6 6 6 7 7 6
4 4 6 8 6 5 9 10 8 6 6 5 6 6 6 7 6 5 5 5 5 5 5 6 7 8 8 7 6 6 7 6 5 5 6 7 7 7 5 4 3 4 4 5 5 6 6 6 5
5 4 2 7 8 8 10 9 7 7 6 6 5 5 5 4 4 4 3 3 4 5 6 6 7 7 8 8 7 7 6 6 6 6 6 7 7 7 6 7 5 5 6 5 6 7 8 7 6
4 2 2 9 11 7 10 5 9 7 6 6 5 5 4 2 1 2 2 4 5 6 6 7 7 8 8 8 8 10 8 8 7 6 6 7 7 7 6 5 6 5 6 6 7 8 7 9 8
4 2 3 9 8 5 7 5 9 7 6 6 5 4 3 1 1 3 5 6 7 8 9 9 9 9 9 9 9 9 9 8 7 7 7 7 5 5 5 5 4 4 5 6 8 7 8 8 9
3 3 5 8 9 6 3 5 8 6 4 4 5 4 4 4 4 5 7 8 9 10 10 10 10 10 10 10 10 10 11 10 11 10 9 7 5 4 4 4 3 4 4 6 7 7 9 9 9
5 7 6 7 7 2 4 4 6 6 2 1 2 4 5 5 7 8 9 10 11 12 12 12 12 12 12 12 11 11 11 12 12 11 10 9 8 6 5 5 4 4 4 5 6 7 9 10 10
3 7 6 7 5 1 5 1 7 4 1 2 4 4 5 7 8 10 11 11 12 13 12 12 13 13 13 13 12 12 12 12 11 11 11 11 10 9 8 7 7 6 6 5 5 6 8 8 9
2 3 6 7 6 6 2 6 7 4 2 3 4 5 7 8 10 11 12 12 12 13 12 13 13 14 14 14 14 13 13 12 13 13 13 12 10 10 10 10 10 9 8 7 6 5 6 7 9
5 3 4 6 6 7 3 3 4 4 2 3 5 6 8 9 11 13 12 12 12 13 13 14 14 15 15 15 14 13 14 14 13 13 14 14 14 13 13 13 12 11 10 9 9 8 7 7 7
1 1 4 4 5 8 7 4 7 3 4 6 7 7 9 11 13 13 13 13 14 15 15 15 15 16 15 15 15 15 15 15 15 14 14 14 14 14 14 14 14 14 13 11 10 10 9 9 8
4 5 5 6 5 5 8 4 7 2 4 6 8 9 11 13 13 14 14 14 15 16 16 16 16 16 16 15 15 16 16 16 16 16 15 14 14 15 16 15 15 15 15 14 13 13 11 11 10
Wind_Direction
162 169 185 208 232 227 43 39 16 20 30 29 25 322 337 348 347 23 77 141 147 147 145 154 159 161 162 159 156 152 152 152 155 157 158 158 159 161 163 165 166 168 168 161 154 147 141 137 136
164 170 203 231 261 17 56 31 17 25 30 36 68 293 332 37 38 72 117 140 151 149 148 156 155 161 162 160 158 156 155 156 158 159 161 163 164 166 169 173 174 176 175 167 164 158 150 147 146
166 202 245 247 292 19 25 18 13 25 51 335 27 7 18 36 60 90 120 146 153 147 149 145 157 161 162 162 160 160 160 161 164 167 168 170 173 175 179 181 182 184 182 174 171 169 162 159 159
188 217 235 255 349 45 15 7 1 337 103 67 18 81 76 41 50 102 129 150 151 149 155 145 161 162 163 164 164 164 165 168 172 175 178 180 183 186 189 188 189 189 185 181 179 177 173 171 171
232 250 247 247 42 45 30 17 354 333 27 53 24 71 82 66 84 116 138 150 151 154 155 146 162 163 165 167 168 170 171 175 180 183 187 190 193 196 197 197 197 196 190 187 189 190 187 183 184
234 248 267 322 54 49 41 27 352 2 33 50 24 77 87 106 115 129 139 152 153 155 154 142 159 166 169 171 173 176 179 183 188 192 196 200 202 204 206 205 206 206 201 198 199 202 200 197 197
265 271 290 315 5 57 26 5 4 360 36 48 19 75 109 116 121 132 137 148 152 157 154 152 166 171 175 179 181 184 187 190 194 199 203 208 213 216 218 216 215 215 213 211 210 213 213 210 209
272 273 260 261 307 23 17 7 20 7 43 50 9 46 108 129 137 135 136 143 149 159 160 160 176 174 182 184 188 193 196 198 200 204 207 211 216 220 224 227 218 223 224 222 221 221 222 220 218
251 256 262 281 326 353 5 1 16 19 63 65 45 36 83 134 143 143 141 144 151 163 168 173 177 181 192 196 183 196 203 207 210 210 211 215 222 218 211 221 216 222 229 230 228 226 226 225 222
237 257 279 359 339 339 353 3 358 340 49 42 40 52 107 146 157 158 156 157 163 169 177 180 189 187 199 205 196 208 214 208 217 224 214 216 226 236 233 202 208 224 232 234 233 233 232 230 228
236 267 311 296 327 332 333 23 21 0 29 6 349 49 142 158 170 165 159 165 165 171 179 186 193 199 215 217 229 232 238 233 229 233 232 234 235 233 234 224 207 218 226 232 225 224 230 229 228
243 252 278 304 330 329 337 31 51 40 24 4 14 69 120 150 153 153 152 153 157 171 179 185 186 208 234 257 258 254 252 250 248 240 237 236 235 237 235 231 233 224 222 226 234 228 230 235 234
235 249 298 335 24 71 87 81 74 44 31 35 48 56 63 75 83 81 90 104 118 135 137 145 245 260 281 279 278 274 272 267 262 260 250 246 242 239 236 233 234 237 235 228 229 235 236 236 237
254 257 107 68 101 107 98 80 65 40 38 51 58 58 55 54 55 59 58 59 59 55 48 24 333 320 306 288 283 279 275 267 269 263 255 250 249 246 244 238 233 235 238 241 239 239 239 241 241
246 200 137 86 130 149 141 73 50 43 60 66 67 65 60 55 55 52 50 49 49 46 36 15 340 332 313 301 297 291 288 285 276 271 266 258 253 249 245 246 239 237 236 235 239 242 243 243 241
209 201 146 79 70 167 226 79 55 51 72 70 66 67 65 59 58 55 52 46 40 33 29 15 358 347 328 317 310 306 302 301 292 286 275 262 253 251 249 248 247 244 239 236 235 238 239 243 247
194 180 126 102 46 117 97 91 69 60 75 71 65 67 68 68 62 58 54 53 47 41 32 24 11 355 338 326 316 311 311 308 305 301 289 272 261 261 260 252 251 246 236 235 241 232 238 243 244
137 167 122 94 70 91 97 100 84 70 74 74 75 75 74 72 64 63 63 66 64 56 46 29 20 10 350 347 336 327 329 326 327 324 324 314 287 275 272 262 261 257 244 237 237 249 239 253 250
302 257 112 103 110 92 103 102 93 89 88 89 87 83 82 80 81 77 75 71 71 60 48 33 20 16 1 1 350 344 342 339 346 347 355 348 339 330 288 278 276 266 255 252 249 246 238 239 241
229 222 131 121 134 129 121 108 102 96 92 91 99 101 102 98 94 84 79 71 58 47 31 23 18 13 4 5 344 338 333 327 347 353 0 358 353 347 332 314 290 279 279 267 264 252 263 253 229
228 270 152 149 152 158 148 132 130 121 120 122 117 113 108 95 86 80 59 42 26 19 8 4 358 352 355 345 337 341 333 330 347 352 358 356 354 353 354 338 330 317 298 280 265 251 246 255 240
263 9 182 164 184 179 218 174 150 148 148 147 143 146 139 125 89 45 8 357 352 350 345 344 340 337 333 326 335 337 333 336 338 334 346 345 354 351 349 345 339 325 303 290 273 252 245 247 248
17 30 195 194 221 195 205 227 143 170 174 168 172 179 187 208 297 321 326 328 330 330 330 330 330 326 322 317 310 306 313 319 319 323 325 324 334 336 337 338 337 327 310 301 286 281 255 243 248
131 169 176 210 227 221 178 251 147 162 170 175 190 211 235 259 282 298 309 315 318 320 323 325 326 323 319 311 305 298 300 301 305 306 305 304 305 301 308 311 315 311 308 303 295 282 263 254 251
228 252 246 227 226 171 151 244 98 110 120 255 252 243 252 270 285 299 308 315 317 318 321 321 322 319 318 313 306 299 295 292 284 286 292 293 292 288 283 284 279 280 280 286 291 284 277 266 254
312 290 298 305 311 112 178 177 104 107 119 271 277 277 275 282 296 307 313 316 317 318 321 321 322 318 315 312 309 303 295 288 290 292 294 291 287 286 286 269 260 257 258 264 269 276 275 272 264
285 330 339 291 286 285 155 124 132 156 207 261 278 284 290 303 310 310 314 316 320 321 320 319 317 314 314 313 309 299 296 294 294 293 281 277 277 277 271 263 257 252 246 249 253 256 267 273 267
16 348 290 304 319 307 285 194 139 155 314 315 308 311 315 315 315 319 320 319 320 318 317 317 315 314 312 310 309 309 308 301 295 289 290 288 284 278 272 266 260 254 246 239 240 248 248 256 262
14 24 334 318 332 318 320 45 80 41 341 323 322 324 322 322 323 323 319 319 318 317 317 318 317 315 313 312 312 308 304 302 298 292 287 282 278 277 271 263 259 253 248 243 237 242 242 245 252
40 15 340 325 340 311 307 51 109 23 326 314 317 323 325 323 321 320 321 320 319 318 319 317 316 313 312 312 310 306 303 301 298 295 294 290 283 275 269 263 257 253 250 245 240 240 240 238 241